Back to catalog

STARLINK-34092

AliveCommunicationsVLEO
NORAD 63904·PAYLOAD·🇺🇸 United States

Launched May 10, 2025 from Cape Canaveral Space Force Station

Loading…

Next Passes (next 24 hours)

TLE

FreshSource: CelesTrak SupGP

Epoch: Sep 14, 2026, 21:03 UTC

1 63904C 25095Q   26257.87756944  .00002476  00000+0  89674-4 0  2578
2 63904  43.0008 188.0509 0001365 262.9908 273.4314 15.27576982    18

Track STARLINK-34092 in real time with AllMySat

Download on the App Store